| time (UTC) | temp F | wind direction | speed knots | gust knots | rain 1hr in | rain 24hr in | rain mn in | humidity % | barometer mb |
| 20260505192703 | 53 | 68 | 1.7 | 2.6 | 0.00 | 0.76 | 0.01 | 92 | 1008.7 |
| 20260505191805 | 53 | 75 | 1.7 | 2.6 | 0.00 | 0.76 | 0.01 | 92 | 1008.9 |
| 20260505191121 | 53 | 67 | 1.7 | 3.5 | 0.00 | 0.78 | 0.01 | 92 | 1008.9 |
| 20260505190004 | 53 | 64 | 2.6 | 3.5 | 0.00 | 0.82 | 0.01 | 92 | 1008.7 |
| 20260505185405 | 53 | 57 | 2.6 | 2.6 | 0.00 | 0.89 | 0.01 | 92 | 1008.6 |
| 20260505184504 | 53 | 51 | 2.6 | 3.5 | 0.00 | 0.98 | 0.01 | 92 | 1008.7 |
| 20260505183605 | 53 | 56 | 2.6 | 2.6 | 0.00 | 1.26 | 0.01 | 92 | 1008.8 |
| 20260505182706 | 53 | 63 | 1.7 | 2.6 | 0.00 | 1.47 | 0.01 | 92 | 1008.8 |
| 20260505181806 | 53 | 64 | 3.5 | 4.3 | 0.00 | 1.66 | 0.01 | 91 | 1008.7 |
| 20260505180905 | 53 | 57 | 3.5 | 4.3 | 0.00 | 1.72 | 0.01 | 91 | 1008.7 |
| 20260505180003 | 54 | 77 | 2.6 | 3.5 | 0.00 | 1.72 | 0.01 | 91 | 1008.8 |
| 20260505175403 | 54 | 67 | 2.6 | 3.5 | 0.00 | 1.72 | 0.01 | 91 | 1008.5 |
| 20260505174504 | 54 | 67 | 3.5 | 4.3 | 0.00 | 1.72 | 0.01 | 91 | 1008.6 |
| 20260505173603 | 54 | 79 | 2.6 | 5.2 | 0.00 | 1.72 | 0.01 | 91 | 1008.7 |
| 20260505172705 | 54 | 65 | 3.5 | 5.2 | 0.00 | 1.72 | 0.01 | 90 | 1008.7 |
| 20260505171805 | 54 | 60 | 3.5 | 4.3 | 0.00 | 1.72 | 0.01 | 90 | 1008.7 |
| 20260505170905 | 54 | 69 | 4.3 | 5.2 | 0.00 | 1.72 | 0.01 | 90 | 1008.7 |
| 20260505170005 | 54 | 58 | 4.3 | 5.2 | 0.00 | 1.72 | 0.01 | 90 | 1009.0 |
| 20260505165404 | 54 | 54 | 4.3 | 5.2 | 0.00 | 1.72 | 0.01 | 91 | 1008.8 |
| 20260505164505 | 54 | 48 | 3.5 | 4.3 | 0.00 | 1.72 | 0.01 | 91 | 1008.9 |
| 20260505163605 | 54 | 46 | 4.3 | 5.2 | 0.00 | 1.72 | 0.01 | 91 | 1008.9 |
| 20260505162917 | 54 | 59 | 4.3 | 5.2 | 0.00 | 1.72 | 0.01 | 91 | 1008.8 |
| 20260505161803 | 54 | 48 | 4.3 | 5.2 | 0.00 | 1.72 | 0.01 | 92 | 1008.8 |
| 20260505160905 | 54 | 68 | 4.3 | 5.2 | 0.00 | 1.72 | 0.01 | 92 | 1008.9 |
| 20260505152913 | 54 | 48 | 2.6 | 4.3 | 0.00 | 1.72 | 0.01 | 93 | 1009.0 |
| 20260505151803 | 54 | 56 | 2.6 | 5.2 | 0.00 | 1.72 | 0.01 | 93 | 1009.0 |
| 20260505150903 | 54 | 58 | 3.5 | 4.3 | 0.00 | 1.72 | 0.01 | 93 | 1009.3 |
| 20260505124503 | 52 | 70 | 4.3 | 7.0 | 0.00 | 1.72 | 0.01 | 99 | 1009.9 |
| 20260505123605 | 51 | 39 | 4.3 | 7.0 | 0.00 | 1.72 | 0.01 | 99 | 1009.9 |
| 20260505122705 | 52 | 34 | 3.5 | 5.2 | 0.00 | 1.72 | 0.01 | 99 | 1009.9 |
| 20260505121803 | 52 | 52 | 3.5 | 4.3 | 0.00 | 1.72 | 0.01 | 99 | 1010.1 |
| 20260505120905 | 52 | 55 | 4.3 | 4.3 | 0.00 | 1.72 | 0.01 | 99 | 1010.0 |
| 20260505120007 | 52 | 61 | 4.3 | 5.2 | 0.00 | 1.72 | 0.01 | 99 | 1010.0 |
| 20260505115406 | 51 | 60 | 4.3 | 5.2 | 0.00 | 1.72 | 0.01 | 99 | 1010.1 |
| 20260505114716 | 51 | 57 | 3.5 | 5.2 | 0.00 | 1.72 | 0.01 | 99 | 1010.1 |
| 20260505113603 | 51 | 41 | 3.5 | 4.3 | 0.00 | 1.72 | 0.01 | 99 | 1010.3 |
| 20260505112703 | 51 | 38 | 5.2 | 5.2 | 0.00 | 1.72 | 0.01 | 99 | 1010.3 |
| 20260505111803 | 51 | 44 | 4.3 | 5.2 | 0.00 | 1.72 | 0.01 | 99 | 1010.4 |
| 20260505110905 | 51 | 62 | 3.5 | 4.3 | 0.00 | 1.72 | 0.01 | 99 | 1010.5 |
| 20260505101803 | 51 | 45 | 4.3 | 5.2 | 0.00 | 1.72 | 0.01 | 99 | 1010.4 |
| 20260505100908 | 51 | 56 | 3.5 | 3.5 | 0.00 | 1.72 | 0.01 | 99 | 1010.6 |
| 20260505100004 | 51 | 60 | 3.5 | 5.2 | 0.00 | 1.72 | 0.01 | 99 | 1010.4 |
| 20260505095404 | 51 | 45 | 4.3 | 6.1 | 0.00 | 1.72 | 0.01 | 99 | 1010.5 |
| 20260505094504 | 52 | 52 | 3.5 | 4.3 | 0.00 | 1.72 | 0.01 | 99 | 1010.2 |
| 20260505093603 | 51 | 59 | 4.3 | 6.1 | 0.00 | 1.72 | 0.01 | 99 | 1010.3 |
| 20260505092705 | 51 | 51 | 5.2 | 6.1 | 0.00 | 1.72 | 0.01 | 99 | 1010.4 |
| 20260505091804 | 51 | 71 | 4.3 | 5.2 | 0.00 | 1.72 | 0.01 | 99 | 1010.5 |
| 20260505091117 | 51 | 54 | 5.2 | 6.1 | 0.00 | 1.72 | 0.01 | 99 | 1010.5 |
| 20260505090007 | 51 | 35 | 5.2 | 5.2 | 0.00 | 1.72 | 0.01 | 99 | 1010.5 |
| 20260505085405 | 51 | 44 | 4.3 | 5.2 | 0.00 | 1.72 | 0.01 | 99 | 1010.4 |
| 20260505084503 | 51 | 38 | 4.3 | 6.1 | 0.00 | 1.72 | 0.01 | 99 | 1010.4 |
| 20260505083815 | 51 | 50 | 4.3 | 6.1 | 0.00 | 1.72 | 0.01 | 99 | 1010.8 |
| 20260505082705 | 51 | 21 | 4.3 | 4.3 | 0.00 | 1.72 | 0.01 | 99 | 1010.5 |
| 20260505081808 | 51 | 55 | 5.2 | 6.1 | 0.00 | 1.72 | 0.01 | 99 | 1010.6 |
| 20260505080904 | 52 | 58 | 3.5 | 5.2 | 0.00 | 1.72 | 0.01 | 99 | 1010.4 |
| 20260505080004 | 51 | 43 | 3.5 | 5.2 | 0.00 | 1.72 | 0.01 | 99 | 1010.5 |
| 20260505075403 | 51 | 56 | 3.5 | 4.3 | 0.00 | 1.72 | 0.01 | 99 | 1010.7 |
| 20260505074505 | 51 | 70 | 2.6 | 4.3 | 0.00 | 1.72 | 0.01 | 99 | 1010.7 |
| 20260505073603 | 51 | 39 | 3.5 | 4.3 | 0.00 | 1.72 | 0.01 | 99 | 1010.8 |
| 20260505072708 | 51 | 44 | 3.5 | 3.5 | 0.00 | 1.72 | 0.01 | 99 | 1010.8 |
| 20260505071805 | 51 | 34 | 3.5 | 4.3 | 0.00 | 1.72 | 0.01 | 99 | 1010.7 |
| 20260505070904 | 51 | 26 | 4.3 | 4.3 | 0.00 | 1.72 | 0.01 | 99 | 1010.6 |
| 20260505070004 | 51 | 28 | 3.5 | 5.2 | 0.00 | 1.72 | 0.01 | 99 | 1010.4 |
| 20260505065408 | 51 | 40 | 3.5 | 5.2 | 0.00 | 1.72 | 0.01 | 99 | 1010.4 |
| 20260505064719 | 51 | 16 | 3.5 | 4.3 | 0.00 | 1.72 | 0.01 | 99 | 1010.6 |
| 20260505063816 | 51 | 358 | 3.5 | 5.2 | 0.00 | 1.72 | 0.01 | 99 | 1010.7 |
| 20260505062703 | 51 | 25 | 3.5 | 4.3 | 0.00 | 1.72 | 0.01 | 99 | 1010.6 |
| 20260505061803 | 51 | 48 | 4.3 | 5.2 | 0.00 | 1.72 | 0.01 | 99 | 1010.8 |
| 20260505060903 | 51 | 42 | 5.2 | 4.3 | 0.00 | 1.72 | 0.01 | 98 | 1010.9 |
| 20260505060005 | 52 | 48 | 3.5 | 3.5 | 0.00 | 1.72 | 0.01 | 99 | 1010.9 |
| 20260505055405 | 52 | 58 | 3.5 | 4.3 | 0.00 | 1.72 | 0.01 | 99 | 1010.9 |
| 20260505054715 | 51 | 46 | 4.3 | 5.2 | 0.00 | 1.72 | 0.01 | 99 | 1011.0 |
| 20260505053604 | 52 | 26 | 3.5 | 7.0 | 0.00 | 1.72 | 0.01 | 99 | 1010.8 |
| 20260505052914 | 52 | 51 | 4.3 | 5.2 | 0.00 | 1.72 | 0.01 | 99 | 1010.5 |
| 20260505051805 | 52 | 30 | 3.5 | 5.2 | 0.00 | 1.72 | 0.01 | 99 | 1010.6 |
| 20260505051114 | 52 | 50 | 3.5 | 4.3 | 0.00 | 1.72 | 0.01 | 99 | 1010.8 |
| 20260505040903 | 53 | 36 | 2.6 | 2.6 | 0.00 | 1.72 | 0.01 | 99 | 1011.0 |
| 20260505040005 | 53 | 46 | 0.9 | 1.7 | 0.00 | 1.72 | 0.01 | 99 | 1010.9 |
| 20260505035403 | 53 | 46 | 0.9 | 1.7 | 0.00 | 1.72 | 0.01 | 99 | 1010.8 |
| 20260505034506 | 53 | 67 | 2.6 | 3.5 | 0.00 | 1.72 | 0.01 | 99 | 1010.8 |
| 20260505033605 | 53 | 67 | 3.5 | 4.3 | 0.00 | 1.72 | 0.01 | 99 | 1010.6 |
| 20260505032703 | 53 | 61 | 4.3 | 4.3 | 0.00 | 1.72 | 0.01 | 99 | 1011.0 |
| 20260505031803 | 53 | 45 | 3.5 | 4.3 | 0.00 | 1.72 | 0.01 | 99 | 1010.9 |
| 20260505030907 | 53 | 48 | 3.5 | 3.5 | 0.00 | 1.71 | 0.00 | 99 | 1010.8 |
| 20260505030218 | 53 | 47 | 4.3 | 5.2 | 0.00 | 1.71 | 0.00 | 99 | 1010.9 |
| 20260505025405 | 53 | 34 | 4.3 | 5.2 | 0.00 | 1.71 | 0.00 | 99 | 1010.9 |
| 20260505024508 | 53 | 36 | 4.3 | 6.1 | 0.00 | 1.71 | 0.00 | 99 | 1011.2 |
| 20260505023603 | 53 | 47 | 4.3 | 5.2 | 0.00 | 1.71 | 0.00 | 99 | 1011.0 |
| 20260505022703 | 53 | 40 | 3.5 | 4.3 | 0.00 | 1.71 | 0.00 | 99 | 1011.1 |
| 20260505021803 | 54 | 37 | 3.5 | 4.3 | 0.00 | 1.71 | 0.00 | 99 | 1011.2 |
| 20260505020905 | 54 | 39 | 4.3 | 6.1 | 0.00 | 1.71 | 0.00 | 99 | 1011.1 |
| 20260505020004 | 54 | 70 | 3.5 | 5.2 | 0.00 | 1.71 | 0.00 | 99 | 1011.1 |
| 20260505015615 | 54 | 59 | 4.3 | 5.2 | 0.00 | 1.71 | 0.00 | 99 | 1011.0 |
| 20260505014503 | 54 | 53 | 3.5 | 4.3 | 0.00 | 1.71 | 0.00 | 99 | 1011.0 |
| 20260505013605 | 54 | 41 | 5.2 | 7.0 | 0.00 | 1.71 | 0.00 | 99 | 1011.0 |
| 20260505012705 | 54 | 39 | 4.3 | 4.3 | 0.00 | 1.71 | 0.00 | 99 | 1010.9 |
| 20260505011804 | 54 | 57 | 5.2 | 8.7 | 0.00 | 1.71 | 0.00 | 99 | 1011.1 |
| 20260505010905 | 54 | 51 | 5.2 | 7.0 | 0.00 | 1.71 | 0.00 | 99 | 1010.9 |
| 20260505010005 | 54 | 42 | 5.2 | 7.0 | 0.00 | 1.71 | 0.00 | 99 | 1011.1 |
| 20260505005405 | 54 | 39 | 5.2 | 5.2 | 0.00 | 1.71 | 0.00 | 99 | 1011.1 |
| 20260505004506 | 55 | 36 | 4.3 | 5.2 | 0.00 | 1.71 | 0.00 | 99 | 1011.0 |
| 20260505003605 | 55 | 50 | 3.5 | 4.3 | 0.00 | 1.71 | 0.00 | 99 | 1011.4 |
| 20260505002704 | 55 | 32 | 4.3 | 4.3 | 0.00 | 1.71 | 0.00 | 99 | 1011.2 |
| 20260505001803 | 55 | 22 | 3.5 | 4.3 | 0.00 | 1.71 | 0.00 | 99 | 1011.3 |
| 20260505000907 | 55 | 28 | 2.6 | 3.5 | 0.00 | 1.71 | 0.00 | 99 | 1011.3 |
| 20260505000004 | 55 | 47 | 3.5 | 5.2 | 0.00 | 1.71 | 0.00 | 99 | 1011.3 |
| 20260504235404 | 55 | 57 | 2.6 | 5.2 | 0.00 | 1.71 | 0.00 | 99 | 1011.3 |
| 20260504234504 | 56 | 57 | 1.7 | 5.2 | 0.00 | 1.71 | 0.00 | 99 | 1011.6 |
| 20260504233605 | 56 | 46 | 1.7 | 2.6 | 0.00 | 1.71 | 0.00 | 99 | 1011.4 |
| 20260504232913 | 56 | 58 | 1.7 | 2.6 | 0.00 | 1.71 | 0.00 | 99 | 1011.5 |
| 20260504231803 | 56 | 55 | 3.5 | 4.3 | 0.00 | 1.71 | 0.00 | 99 | 1011.3 |
| 20260504231118 | 56 | 46 | 1.7 | 2.6 | 0.00 | 1.71 | 0.00 | 99 | 1011.7 |
| 20260504230215 | 56 | 82 | 0.9 | 1.7 | 0.00 | 1.71 | 0.00 | 99 | 1011.6 |
| 20260504225406 | 56 | 29 | 0.9 | 0.9 | 0.00 | 1.71 | 0.00 | 99 | 1011.6 |
| 20260504224508 | 56 | 35 | 0.9 | 2.6 | 0.00 | 1.71 | 0.00 | 99 | 1011.7 |
| 20260504223816 | 56 | 58 | 0.9 | 1.7 | 0.00 | 1.71 | 0.00 | 99 | 1011.6 |
| 20260504222705 | 56 | 259 | 1.7 | 2.6 | 0.00 | 1.71 | 0.00 | 99 | 1011.9 |
| 20260504221805 | 56 | 241 | 0.9 | 1.7 | 0.00 | 1.71 | 0.00 | 99 | 1011.9 |
| 20260504220903 | 56 | 240 | 0.9 | 1.7 | 0.00 | 1.71 | 0.00 | 99 | 1012.1 |
| 20260504220007 | 56 | 220 | 0.0 | 0.9 | 0.00 | 1.71 | 0.00 | 99 | 1012.2 |
| 20260504215403 | 56 | 236 | 0.0 | 1.7 | 0.00 | 1.68 | 1.68 | 99 | 1012.2 |
| 20260504214503 | 56 | 255 | 1.7 | 2.6 | 0.00 | 1.60 | 1.60 | 99 | 1012.1 |
| 20260504213603 | 56 | 234 | 1.7 | 2.6 | 0.00 | 1.51 | 1.51 | 99 | 1012.3 |
| 20260504212705 | 56 | 232 | 1.7 | 2.6 | 0.00 | 1.46 | 1.46 | 99 | 1012.3 |
| 20260504211803 | 56 | 180 | 0.9 | 2.6 | 0.00 | 1.41 | 1.41 | 99 | 1012.4 |
| 20260504211119 | 56 | 230 | 1.7 | 2.6 | 0.00 | 1.36 | 1.36 | 99 | 1012.2 |
| 20260504210005 | 56 | 245 | 0.9 | 2.6 | 0.00 | 1.27 | 1.27 | 99 | 1012.5 |
| 20260504205613 | 56 | 258 | 0.0 | 1.7 | 0.00 | 1.25 | 1.26 | 99 | 1012.4 |
| 20260504204503 | 57 | 266 | 0.9 | 2.6 | 0.00 | 1.10 | 1.10 | 99 | 1012.4 |
| 20260504203818 | 57 | 249 | 1.7 | 1.7 | 0.00 | 1.06 | 1.06 | 99 | 1012.5 |
| 20260504202705 | 57 | 202 | 0.0 | 0.9 | 0.00 | 1.04 | 1.04 | 99 | 1012.2 |
| 20260504201805 | 58 | 0 | 0.0 | 0.0 | 0.00 | 1.02 | 1.02 | 99 | 1012.5 |
| 20260504200905 | 57 | 229 | 0.9 | 0.9 | 0.00 | 1.01 | 1.01 | 99 | 1012.4 |
| 20260504200004 | 57 | 0 | 0.0 | 0.0 | 0.00 | 1.01 | 1.01 | 99 | 1012.4 |
| 20260504195405 | 58 | 0 | 0.0 | 0.0 | 0.00 | 0.99 | 0.99 | 99 | 1012.2 |
| 20260504194508 | 58 | 225 | 0.0 | 0.9 | 0.00 | 0.99 | 0.99 | 99 | 1012.0 |
| 20260504193603 | 57 | 230 | 0.9 | 0.9 | 0.00 | 0.99 | 0.99 | 99 | 1012.1 |